User: anonymous   Login
Location: Tauranga
(37.6860°S, 176.1670°E)
Time: 08:31:20
(UTC+13:00)
Language:

Cosmos 1666 Rocket - Orbit

View from above orbital plane
View from above orbital plane
View from above satellite
View from above satellite

Ground track
Ground track

The orbit data is extracted from the following two-line orbital elements,

1 15890U 85058B   19324.81146486 +.00000086 +00000-0 +75570-5 0  9999
2 15890 082.5244 150.9133 0021007 173.4478 315.3104 14.83417192835188
Epoch (UTC): 20 November 2019 19:28:30
Eccentricity: 0.0021007
inclination: 82.5244°
perigee height: 604 km
apogee height: 633 km
right ascension of ascending node: 150.9133°
argument of perigee: 173.4478°
revolutions per day: 14.83417192
mean anomaly at epoch: 315.3104°
orbit number at epoch: 83518

The dashed part of the orbit path shows where the satellite is in the earth's shadow,  

DLR